Regional Weather Roundup
Issued by NWS Wakefield, VA

Home | Current Version | Previous Version | Graphics & Text | Print | Product List | Glossary On
Versions: 1 2 3 4 5 6 7 8 9 10 11 12 13 14 15 16 17 18 19 20 21 22 23 24 25 26 27 28 29 30 31 32 33 34 35 36 37 38 39 40 41 42 43 44 45 46 47 48 49 50
000
ASUS41 KAKQ 050615
RWRAKQ

REGIONAL WEATHER ROUNDUP
NATIONAL WEATHER SERVICE WAKEFIELD VA
200 AM EDT THU MAY 05 2016

Note: "fair" indicates few or no clouds below 12,000 feet with no
significant weather and/or obstructions to visibility. * = Denotes
station may not report precipitation (e.g., rain,snow,etc.),
thunder or fog.

VAZ042-051-052>054-056-050700-
NORTHERN VIRGINIA

CITY           SKY/WX    TMP DP  RH WIND       PRES   REMARKS
WASH NATIONAL  CLOUDY    53  49  86 NE14      29.70S
DULLES         CLOUDY    52  49  89 E6        29.69F
FORT BELVOIR   CLOUDY    53  49  87 VRB1      29.69F
QUANTICO       LGT RAIN  55  52  89 E10       29.69F
FREDERICKSBRG* CLOUDY    55  55 100 CALM      29.67S
STAFFORD*      DRIZZLE   53  51  94 NE5       29.72S
WARRENTON      DRIZZLE   54  48  81 E3        29.68F
CULPEPER*      DRIZZLE   54  53  97 NE5       29.68F
MANASSAS*      CLOUDY    54  50  87 NE3       29.68F
LEESBURG*      CLOUDY    52  52 100 E3        29.70S
WINCHESTER     DRIZZLE   52  52 100 E6        29.67S
FRONT ROYAL*   CLOUDY    52  52 100 E6        29.66S
LURAY*         CLOUDY    52  52 100 N5        29.65F
$$

VAZ048-049-060>072-079>083-050700-
CENTRAL AND SOUTH CENTRAL VIRGINIA

CITY           SKY/WX    TMP DP  RH WIND       PRES   REMARKS
RICHMOND       DRIZZLE   54  53  97 NE9       29.65S
CHESTERFIELD*  CLOUDY    55  45  67 N5        29.66S
PETERSBURG*    CLOUDY    59  57  92 NE8       29.64F
HANOVER        CLOUDY    55  53  93 CALM      29.67R
TAPPAHANNOCK*  CLOUDY    55  55 100 NE7       29.67S FOG
QUINTON*       CLOUDY    55  55  99 MISG      29.65S
CHARLOTTSVILLE CLOUDY    55  52  89 NE8       29.65F
GORDONSVILLE*  CLOUDY    54  53  98 NE3       29.65F
ORANGE*        DRIZZLE   54  54 100 NE9       29.67F
LOUISA*        DRIZZLE   57  55  94 E7        29.64F
BUMPASS*       CLOUDY    53  53  99 E3        29.66S
FARMVILLE*     MOCLDY    58  55  91 NE9       29.62F
CREWE*         CLOUDY    56  56 100 NE6       29.63S
FORT PICKETT*  NOT AVBL
CHASE CITY*    CLOUDY    56  55  95 NE5       29.62S VSB 1
CLARKSVILLE*   FAIR      54  54 100 NE5       29.60S
SOUTH HILL*    CLOUDY    57  56  97 CALM      29.67S
LAWRENCEVILLE* CLOUDY    57  56  97 CALM      29.61F
EMPORIA*       CLOUDY    55  55 100 E7        29.63S
$$

VAZ088>098-050700-
SOUTHEAST VIRGINIA

CITY           SKY/WX    TMP DP  RH WIND       PRES   REMARKS
NORFOLK        LGT RAIN  54  52  93 NE14      29.63F FOG
VIRGINIA BEACH CLOUDY    56  51  84 NE10      29.62F FOG
NORFOLK NAVAL  CLOUDY    55  53  93 NE9       29.65F FOG
WEST POINT*    CLOUDY    55  54  95 NE7       29.66F
SALUDA*        CLOUDY    53  52  95 NE8       29.66S
NEWPORT NEWS   CLOUDY    54  53  97 E10       29.65S FOG
LANGLEY AFB    CLOUDY    54  54 100 E14       29.63F FOG
FORT EUSTIS    CLOUDY    55  54  94 E6        29.63S FOG
WILLIAMSBURG*  MOCLDY    57  57 100 E3        29.65F
HR EXEC AP*    CLOUDY    54  52  94 NE6       29.66F
FRANKLIN*      CLOUDY    55  52  90 E13       29.64S
US460-WAKEFLD  CLOUDY    56  54  93 E3        29.63F
$$

VAZ020-022-025-037-045-050700-
WEST CENTRAL AND SOUTHWEST VIRGINIA

CITY           SKY/WX    TMP DP  RH WIND       PRES   REMARKS
STAUNTON*      CLOUDY    53  51  95 CALM      29.67F
WAYNESBORO*    CLOUDY    51  49  93 NW5       29.66S
HOT SPRINGS VA DRIZZLE   44  42  93 NW8       29.65F
LYNCHBURG      MOCLDY    54  50  86 N6        29.64F
DANVILLE       FAIR      49  48  97 CALM      29.61F
SOUTH BOSTON*  FAIR      50  49  95 CALM      29.61S
MARTINSVILLE   FAIR      50  44  80 N3        29.65F
ROANOKE        CLOUDY    54  45  71 NW6       29.66F
BLACKSBURG     CLOUDY    50  45  83 W3        29.69F
DUBLIN*        CLOUDY    51  44  78 NW3       29.68F
MARION*        CLOUDY    46  42  86 SW7       29.70F
HILLSVILLE*    CLOUDY    48  43  81 NW5       29.65F
RICHLANDS*     DRIZZLE   44  33  66 W3        29.70F
WISE*          CLOUDY    43  43 100 NW10G16   29.73F
ABINGDON*      CLOUDY    47  46  93 W6        29.71F
$$

MDZ021>025-VAZ099-100-050700-
SOUTHERN MARYLAND AND THE DELMARVA PENINSULA

CITY           SKY/WX    TMP DP  RH WIND       PRES   REMARKS
PATUXENT RIVER CLOUDY    51  48  89 NE10      29.67F
BAY BRIDGE APT NOT AVBL
LEONARDTOWN    CLOUDY    50  46  87 E3        29.69F
DOVER          CLOUDY    49  49 100 NE9       29.69F
GEORGETOWN     CLOUDY    49  46  90 E10       29.70F
EASTON         CLOUDY   N/A N/A N/A E3        29.74S
CAMBRIDGE      CLOUDY    50  46  87 NE6       29.69S
SALISBURY      CLOUDY    50  47  89 NE14      29.68S
OCEAN CITY     CLOUDY    49  47  93 NE10      29.68S
WALLOPS ISLAND CLOUDY    51  48  89 NE14G25   29.67S
ACCOMACK*      CLOUDY    50  32  50 NE9       29.65F
$$

NCZ012>017-030>032-050700-
NORTH CENTRAL AND EASTERN NORTH CAROLINA

CITY           SKY/WX    TMP DP  RH WIND       PRES   REMARKS
ROANOKE RAPIDS CLOUDY    59  57  94 NE6       29.60F FOG
RALEIGH        PTCLDY    53  51  93 CALM      29.60F
ELIZABETH CITY CLOUDY    56  54  93 NE9       29.62F
AHOSKIE*       CLOUDY    56  55  94 NE5       29.62F
EDENTON*       CLOUDY    58  58 100 NE8       29.63S
CURRITUCK*     NOT AVBL
KILL DEVIL HLS CLOUDY    55  54  98 N6        29.61S
MANTEO         CLOUDY    55  55 100 NE9       29.61F
CAPE HATTERAS  CLOUDY    59  56  89 NE8       29.60F
TARBORO*       MOCLDY    59  57  94 CALM      29.61S
GOLDSBORO      CLOUDY    62  62 100 CALM      29.57S
WASHINGTON     CLOUDY    59  58  95 E8        29.60S FOG
GREENVILLE     CLOUDY    61  61 100 E10       29.64R
NEW BERN       CLOUDY    63  61  93 E8        29.60S
WILMINGTON     CLOUDY    63  57  81 NW7       29.57F
$$

VAZ048-050700-
ELSEWHERE

CITY           SKY/WX    TMP DP  RH WIND       PRES   REMARKS
HARRISBURG PA  CLOUDY    50  46  86 E5        29.72S FOG
BALTIMORE      DRIZZLE   50  48  93 E7        29.70S FOG
ANNAPOLIS      CLOUDY    51  48  89 NE6       29.70S
ANDREWS AFB    CLOUDY    50  48  93 E9        29.68S FOG
PHILADELPHIA   CLOUDY    50  46  86 E9        29.73S
HENDERSON NC   CLEAR     52  52 100 N5        29.60F
GREENSBORO     MOCLDY    56  45  66 CALM      29.60F
ROCKY MOUNT    PTCLDY    59  58  96 NE6       29.59S
$$

VAZ100-050700-
MARINE

STATION/POSITION TIME  TEMP    WIND        PRES    WAVE   SWELL
                       AIR SEA DIR/SP/G            HT/PER HT/PER
                 (UTC) (F)     (DEG/KT/KT) (MB)    (FT/S) (FT/S)
BRANDYWINE LGT   0500   50      70/ 19/ 21 1005.7F
CAPE MAY NJ      0500   49 57   50/  7/ 13 1005.5F
LEWES DE         0500   50 55   70/ 18/ 22 1005.6F
15NM E FENWICK I 0550   48 51              1004.2F   8/ 7
OCEAN-CITY-INLET 0500   50 55   70/ 10/ 16 1004.6S
WACHAPREAGUE VA  0500   52 61   30/ 16/ 20 1003.9F
THOMAS POINT MD  0600   51 59   60/ 11/ 12 1006.9F
GOOSES REEF MD   0600   52 59   70/ 12/ 14 1006.2F   1/ 3
COVE POINT MD    0500   50      80/  9/ 12 1006.0S
SOLOMONS ISLAND  0500   52 60   50/  8/ 10   N/A
BISHOPS HEAD MD  0500   52 60   50/ 10/ 15 1004.4F
PINEY POINT MD   0500           90/  8/ 11   N/A
POTOMAC MD       0600   53 60   60/ 14/ 16 1003.7F   1/ 3
CAMBRIDGE MD     0500   51 61   60/ 10/ 12 1004.7F
LEWISETTA VA     0500   54 62   70/  9/ 13 1004.4F
RAPPAHANNOCK LGT 0500           40/ 14/ 16 1004.8F
STINGRAY PT      0600   54 62   50/ 12/ 16 1004.6F   2/ 3
YORK RVR RNG VA  0500   55      80/ 12/ 14 1003.4F
YORKTOWN VA      0500   56 63   80/ 11/ 12 1003.9F
JAMESTOWN VA     0600   57 68  100/  6/ 10   N/A     0
DOMINION TERM VA 0500   55      70/  9/ 12 1003.9F
KIPTOPEKE VA     0500      62   70/ 11/ 14   N/A
CHES BAY BRIDGE  0500   53 60   30/ 13/ 17 1003.5F
CAPE HENRY VA    0500   52      40/ 14/ 16   N/A
CHESAPEAKE LGHT  0500   51      40/ 15/ 16 1004.7R
WILLOUBY STN VA  0500   54      50/ 12/ 14 1004.7F
CAPE HENRY BUOY  0512      56                N/A     4/ 6
CAPE CHARLES BUO 0526      58                N/A     4/ 6   2/ 7
OFFSHORE WE BUOY 0521      56                N/A     4/ 6   3/ 6
64NM E OF VA BCH 0550   52 54   10/ 12/ 14 1002.1F   4/ 7   3/ 7
DUCK PIER NC     0500   54 60  360/ 11/ 14 1002.9S
44100 DUCK FRF   0524      58                N/A     4/ 7
44056 DUCK FRF   0511      59                N/A     3/ 6
OREGON INLET NC  0500   56 65   20/ 13/ 14 1002.6F
HATTERAS NC      0500   61 70   20/ 15/ 21 1002.2S
DIAMOND SHLS NC  0550   61 70   20/ 19/ 21 1001.7F   4/ 7
CAPE LOOKOUT NC  0600   63      50/ 19/ 21 1001.0F
$$



USA.gov is the U.S. government's official web portal to all federal, state and local government web resources and services.